Kankakee, IL

6:34 PM CDT on April 24, 2017 (GMT -0500)
Greater Kankakee

Weather History for KIKK - April, 2013

Change the Weather History Date:

Saturday, April 13, 2013

  Actual Average Record
Temperature  
Mean Temperature 40 °F -  
Max Temperature 47 °F 59 °F 84 °F (1977)
Min Temperature 34 °F 37 °F 25 °F (1990)
Degree Days  
Heating Degree Days 25    
Moisture  
Dew Point 32 °F    
Average Humidity 74    
Maximum Humidity 93    
Minimum Humidity 56    
Precipitation  
Precipitation 0.00 in - - ()
Sea Level Pressure  
Sea Level Pressure 29.95 in    
Wind  
Wind Speed 12 mph (West)    
Max Wind Speed 21 mph    
Max Gust Speed 30 mph    
Visibility 10 miles    
Events      
Averages and records for this station are not official NWS values.
T = Trace of Precipitation, MM = Missing Value Source: NWS Daily Summary

Daily Weather History Graph

Daily Weather History Graph

Search for Another Location

Airport or City:

Trip Planner

Search our weather history database for the weather conditions in past years. The results will help you decide how hot, cold, wet, or windy it might be!

Date:

Astronomy

Apr. 13, 2013 Rise Set
Actual Time 6:14 AM CDT 7:29 PM CDT
Civil Twilight 5:46 AM CDT 7:57 PM CDT
Nautical Twilight 5:12 AM CDT 8:32 PM CDT
Astronomical Twilight 4:36 AM CDT 9:07 PM CDT
Moon 8:04 AM CDT (4/13) 10:54 PM CDT (4/13)
Length of Visible Light 14h 11m
Length of Day
13h 14m
Waxing Crescent, 10% of the Moon is Illuminated
Apr 13
Waxing Crescent
Apr 18
First Quarter
Apr 25
Full
May 2
Last Quarter
May 9
New

Hourly Weather History & Observations

Time (CDT) Temp. Windchill Dew Point Humidity Pressure Visibility Wind Dir Wind Speed Gust Speed Precip Events Conditions
12:15 AM 38.7 °F 31.4 °F 34.2 °F 84% 29.89 in 10.0 mi WSW 11.5 mph - N/A   Overcast
12:35 AM 38.8 °F 31.6 °F 34.0 °F 83% 29.90 in 10.0 mi WSW 11.5 mph - N/A   Overcast
12:55 AM 38.5 °F 31.6 °F 34.0 °F 84% 29.89 in 10.0 mi WSW 10.4 mph - N/A   Overcast
1:15 AM 38.5 °F 30.3 °F 33.6 °F 83% 29.90 in 10.0 mi West 13.8 mph 17.3 mph N/A   Overcast
1:35 AM 38.3 °F 30.9 °F 33.4 °F 83% 29.91 in 10.0 mi West 11.5 mph 16.1 mph N/A   Overcast
1:55 AM 37.9 °F 30.9 °F 33.1 °F 83% 29.92 in 10.0 mi West 10.4 mph - N/A   Overcast
2:15 AM 37.8 °F 31.3 °F 32.5 °F 81% 29.91 in 10.0 mi West 9.2 mph - N/A   Overcast
2:35 AM 37.6 °F 32.3 °F 33.4 °F 85% 29.90 in 10.0 mi West 6.9 mph - N/A   Overcast
2:55 AM 37.6 °F 31.6 °F 33.6 °F 86% 29.90 in 10.0 mi West 8.1 mph - N/A   Overcast
3:15 AM 37.4 °F 28.9 °F 33.4 °F 86% 29.89 in 10.0 mi WSW 13.8 mph 18.4 mph N/A   Overcast
3:35 AM 36.9 °F 28.2 °F 33.8 °F 89% 29.89 in 7.0 mi West 13.8 mph 19.6 mph N/A   Overcast
3:55 AM 36.0 °F 28.5 °F 32.9 °F 89% 29.90 in 10.0 mi West 10.4 mph - N/A   Overcast
4:15 AM 36.0 °F 30.3 °F 32.9 °F 89% 29.90 in 10.0 mi West 6.9 mph - N/A   Overcast
4:35 AM 36.0 °F 31.1 °F 33.4 °F 91% 29.90 in 10.0 mi WSW 5.8 mph - N/A   Overcast
4:55 AM 36.1 °F 29.9 °F 33.4 °F 90% 29.90 in 10.0 mi WSW 8.1 mph - N/A   Overcast
5:15 AM 36.5 °F 28.7 °F 32.4 °F 85% 29.90 in 10.0 mi West 11.5 mph - N/A   Overcast
5:35 AM 36.0 °F 27.1 °F 32.2 °F 86% 29.90 in 10.0 mi West 13.8 mph 19.6 mph N/A   Overcast
5:55 AM 35.1 °F 25.5 °F 32.2 °F 89% 29.91 in 7.0 mi West 15.0 mph - N/A   Overcast
6:15 AM 34.7 °F 26.4 °F 32.9 °F 93% 29.91 in 10.0 mi West 11.5 mph 16.1 mph N/A   Overcast
6:35 AM 34.7 °F 26.4 °F 32.2 °F 91% 29.91 in 10.0 mi WSW 11.5 mph 17.3 mph N/A   Overcast
6:55 AM 34.7 °F 25.9 °F 32.2 °F 91% 29.91 in 7.0 mi West 12.7 mph - N/A   Overcast
7:15 AM 34.9 °F 26.6 °F 32.0 °F 89% 29.92 in 10.0 mi West 11.5 mph 16.1 mph N/A   Overcast
7:35 AM 35.1 °F 25.5 °F 32.2 °F 89% 29.92 in 10.0 mi West 15.0 mph 19.6 mph N/A   Overcast
7:55 AM 34.3 °F 23.9 °F 31.1 °F 88% 29.93 in 10.0 mi West 17.3 mph 25.3 mph N/A   Overcast
8:15 AM 34.7 °F 25.5 °F 30.9 °F 86% 29.93 in 10.0 mi WSW 13.8 mph - N/A   Overcast
8:35 AM 35.6 °F 25.9 °F 29.5 °F 78% 29.93 in 10.0 mi West 16.1 mph 20.7 mph N/A   Overcast
8:55 AM 35.8 °F 25.7 °F 29.1 °F 77% 29.94 in 10.0 mi West 17.3 mph 23.0 mph N/A   Overcast
9:15 AM 36.7 °F 26.0 °F 28.2 °F 71% 29.94 in 10.0 mi West 20.7 mph 29.9 mph N/A   Overcast
9:35 AM 36.9 °F 26.5 °F 28.0 °F 70% 29.95 in 10.0 mi West 19.6 mph 25.3 mph N/A   Overcast
9:55 AM 37.0 °F 26.4 °F 27.9 °F 69% 29.95 in 10.0 mi West 20.7 mph 27.6 mph N/A   Overcast
10:15 AM 37.2 °F 27.6 °F 26.6 °F 65% 29.96 in 10.0 mi West 17.3 mph 26.5 mph N/A   Overcast
10:35 AM 36.7 °F 26.6 °F 27.9 °F 70% 29.97 in 10.0 mi West 18.4 mph 29.9 mph N/A   Overcast
10:55 AM 38.3 °F 28.7 °F 27.9 °F 66% 29.97 in 10.0 mi West 18.4 mph 27.6 mph N/A   Overcast
11:15 AM 37.8 °F 28.3 °F 27.9 °F 67% 29.97 in 10.0 mi West 17.3 mph 25.3 mph N/A   Overcast
11:35 AM 38.7 °F 28.8 °F 27.3 °F 64% 29.98 in 10.0 mi West 19.6 mph - N/A   Overcast
11:55 AM 39.4 °F 30.1 °F 28.6 °F 65% 29.99 in 10.0 mi West 18.4 mph 25.3 mph N/A   Overcast
12:15 PM 39.4 °F 29.8 °F 29.1 °F 67% 29.99 in 10.0 mi West 19.6 mph 25.3 mph N/A   Overcast
12:35 PM 39.9 °F 31.1 °F 29.3 °F 66% 29.99 in 10.0 mi West 17.3 mph 25.3 mph N/A   Overcast
12:55 PM 40.1 °F 31.3 °F 28.2 °F 63% 29.99 in 10.0 mi West 17.3 mph 28.8 mph N/A   Overcast
1:15 PM 41.5 °F 32.6 °F 29.5 °F 62% 29.99 in 10.0 mi West 19.6 mph - N/A   Overcast
1:35 PM 42.1 °F 34.5 °F 29.3 °F 61% 29.99 in 10.0 mi West 15.0 mph 23.0 mph N/A   Overcast
1:55 PM 43.0 °F 35.7 °F 30.0 °F 60% 29.99 in 10.0 mi West 15.0 mph - N/A   Overcast
2:15 PM 42.6 °F 35.6 °F 28.8 °F 58% 29.99 in 10.0 mi West 13.8 mph 21.9 mph N/A   Overcast
2:35 PM 43.9 °F 36.2 °F 30.2 °F 59% 29.98 in 10.0 mi West 17.3 mph 23.0 mph N/A   Overcast
2:55 PM 44.1 °F 35.9 °F 30.2 °F 58% 29.97 in 10.0 mi West 19.6 mph 26.5 mph N/A   Overcast
3:15 PM 45.1 °F 38.1 °F 30.9 °F 58% 29.97 in 10.0 mi WSW 16.1 mph 23.0 mph N/A   Mostly Cloudy
3:35 PM 46.0 °F 39.9 °F 31.8 °F 58% 29.97 in 10.0 mi WSW 13.8 mph - N/A   Mostly Cloudy
3:55 PM 45.3 °F 39.0 °F 31.1 °F 58% 29.97 in 10.0 mi West 13.8 mph 20.7 mph N/A   Scattered Clouds
4:15 PM 46.2 °F 40.1 °F 31.3 °F 56% 29.97 in 10.0 mi WSW 13.8 mph 20.7 mph N/A   Mostly Cloudy
4:35 PM 45.9 °F 40.4 °F 32.0 °F 58% 29.96 in 10.0 mi West 11.5 mph 16.1 mph N/A   Overcast
4:55 PM 45.7 °F 40.2 °F 31.6 °F 58% 29.97 in 10.0 mi West 11.5 mph 17.3 mph N/A   Overcast
5:15 PM 46.4 °F 41.5 °F 31.5 °F 56% 29.97 in 10.0 mi West 10.4 mph 18.4 mph N/A   Overcast
5:35 PM 45.9 °F 40.4 °F 32.0 °F 58% 29.97 in 10.0 mi West 11.5 mph - N/A   Overcast
5:55 PM 46.0 °F 41.0 °F 32.0 °F 58% 29.97 in 10.0 mi West 10.4 mph - N/A   Mostly Cloudy
6:15 PM 45.7 °F 41.5 °F 32.2 °F 59% 29.97 in 10.0 mi West 8.1 mph - N/A   Mostly Cloudy
6:35 PM 45.5 °F 41.3 °F 32.5 °F 61% 29.97 in 10.0 mi WSW 8.1 mph - N/A   Overcast
6:55 PM 45.5 °F 41.3 °F 32.7 °F 61% 29.96 in 10.0 mi WSW 8.1 mph - N/A   Mostly Cloudy
7:15 PM 44.1 °F 40.1 °F 32.4 °F 63% 29.96 in 10.0 mi WSW 6.9 mph - N/A   Scattered Clouds
7:35 PM 43.3 °F 40.7 °F 32.9 °F 67% 29.96 in 10.0 mi WSW 4.6 mph - N/A   Scattered Clouds
7:55 PM 42.1 °F 40.2 °F 32.7 °F 69% 29.97 in 10.0 mi WSW 3.5 mph - N/A   Scattered Clouds
8:15 PM 39.4 °F - 33.1 °F 78% 29.97 in 10.0 mi Calm Calm - N/A   Scattered Clouds
8:35 PM 41.9 °F - 33.6 °F 72% 29.97 in 10.0 mi Calm Calm - N/A   Mostly Cloudy
8:55 PM 41.4 °F - 33.6 °F 74% 29.97 in 10.0 mi Calm Calm - N/A   Mostly Cloudy
9:15 PM 40.5 °F - 34.5 °F 79% 29.97 in 10.0 mi Calm Calm - N/A   Overcast
9:35 PM 41.0 °F - 35.4 °F 81% 29.98 in 10.0 mi Calm Calm - N/A   Overcast
9:55 PM 40.3 °F 38.2 °F 36.5 °F 86% 29.99 in 10.0 mi SE 3.5 mph - N/A   Overcast
10:15 PM 41.0 °F - 36.5 °F 84% 29.98 in 10.0 mi Calm Calm - N/A   Overcast
10:35 PM 41.0 °F - 36.7 °F 85% 29.98 in 10.0 mi Calm Calm - N/A   Overcast
10:55 PM 41.2 °F - 36.3 °F 83% 29.99 in 10.0 mi Calm Calm - N/A   Overcast
11:15 PM 41.0 °F 39.0 °F 36.7 °F 85% 29.99 in 10.0 mi East 3.5 mph - N/A   Overcast
11:35 PM 41.0 °F 39.0 °F 36.5 °F 84% 29.99 in 10.0 mi ENE 3.5 mph - N/A   Overcast
11:55 PM 41.0 °F 38.0 °F 35.6 °F 81% 29.99 in 10.0 mi NE 4.6 mph - N/A   Overcast